SCP
0 0 0 0 0 0 0 0 0 0 1 1 1 1 0 0 0 0 0 0 0 0 0 0 0 0 0 0 0 0 0 0 0 0 0 0 0 0 0 0 0 0 0
0 0 0 0 0 0 0 0 0 0 0 0 1 1 0 0 0 0 0 0 0 0 0 0 0 0 0 0 0 0 0 0 0 0 0 0 0 0 0 0 0 0 0
0 0 0 0 0 0 0 0 0 0 0 0 0 0 0 0 0 0 0 0 0 0 0 0 0 0 0 0 0 0 0 0 0 0 0 0 0 0 0 0 0 0 0
0 0 0 0 0 0 0 0 0 0 0 0 0 0 0 0 0 0 0 0 0 0 0 0 0 0 0 0 0 0 0 0 0 0 0 0 0 0 0 0 0 0 0
0 0 0 0 0 0 0 0 0 0 0 0 0 0 0 0 0 0 0 0 0 0 0 0 0 0 1 1 0 0 0 0 0 0 0 0 0 0 0 0 0 0 0
0 0 0 0 0 -0 -0 0 0 0 0 0 0 0 0 0 0 0 0 0 0 0 0 0 0 0 1 1 1 0 0 0 0 0 0 0 0 0 0 0 0 0 0
0 0 0 0 0 0 0 0 0 0 0 0 0 0 0 0 0 0 0 0 0 0 0 0 0 0 0 0 0 0 0 0 0 0 0 0 0 0 0 0 0 0 0
0 0 0 0 0 0 0 0 0 0 0 0 0 0 0 0 0 0 0 0 0 0 0 0 0 0 0 0 0 0 0 0 0 0 0 0 0 0 0 0 0 0 0
0 0 0 0 0 0 0 0 0 0 0 0 0 0 0 0 0 0 0 0 0 0 0 0 0 0 0 0 0 0 0 0 0 0 0 0 0 0 0 0 0 0 0
0 0 0 0 0 0 0 0 0 0 0 0 0 0 0 0 0 0 0 0 0 0 0 0 0 0 0 0 0 0 0 0 0 0 0 0 0 0 0 0 0 0 0
0 0 0 0 0 0 0 0 0 0 0 0 0 0 0 0 0 0 0 0 0 0 0 0 0 0 0 0 0 0 0 0 0 0 0 0 0 0 0 0 0 0 0
0 0 0 0 0 0 0 0 0 0 0 0 0 0 0 0 0 0 0 0 0 0 0 0 0 0 0 0 0 0 0 0 0 0 0 0 0 0 0 0 0 0 0
0 0 0 0 0 0 0 0 0 0 0 0 0 0 0 0 0 0 0 0 0 0 0 0 0 0 0 0 0 0 0 0 0 0 0 0 0 0 0 0 0 0 0
0 0 0 0 0 0 0 0 0 0 0 0 0 0 0 0 0 0 0 0 0 0 0 0 0 0 0 0 0 0 0 0 0 0 0 0 0 0 0 0 0 0 0
0 0 0 0 0 0 0 0 0 0 0 0 0 0 0 0 0 0 0 0 0 0 0 0 0 0 0 0 0 0 0 0 0 0 0 0 0 0 0 0 0 0 0
0 0 0 0 0 0 0 0 0 0 0 0 0 0 0 0 0 0 0 0 0 0 0 0 0 0 0 0 0 0 0 0 0 0 0 0 0 0 0 0 0 0 0
0 0 0 0 0 0 0 0 0 0 0 0 0 0 0 0 0 0 0 0 0 0 0 0 0 0 0 0 0 0 0 0 0 0 0 0 0 0 0 0 0 0 0
0 0 0 0 0 0 0 0 0 0 0 0 0 0 0 0 0 0 0 0 0 0 0 0 0 0 0 0 0 0 0 0 0 0 0 0 0 0 0 0 0 0 0
0 0 0 0 0 0 0 0 0 0 0 0 0 0 0 0 0 0 0 0 0 0 0 0 0 0 0 0 0 0 0 0 0 0 0 0 0 0 0 0 0 0 0
0 0 0 0 0 0 0 0 0 0 0 0 0 0 0 0 0 0 0 0 0 0 0 0 0 0 0 0 0 0 0 0 0 0 0 0 0 0 0 0 0 0 0
0 0 0 0 0 0 0 0 0 0 0 0 0 0 0 0 0 0 0 0 0 0 0 0 0 0 0 0 0 0 0 0 0 0 0 0 0 0 0 0 0 0 0
0 0 0 0 0 0 0 0 0 0 0 0 0 0 0 0 0 0 0 0 0 0 0 0 0 0 0 0 0 0 0 0 0 0 0 0 0 0 0 0 0 0 0
0 0 0 0 0 0 0 0 0 0 0 0 0 0 0 0 0 0 0 0 0 0 0 0 0 0 0 0 0 0 0 0 0 0 0 0 0 0 0 0 0 0 0
0 0 0 0 0 0 0 0 0 0 0 0 0 0 0 0 0 0 0 0 0 0 0 0 0 0 0 0 0 0 0 0 0 0 0 0 0 0 0 0 0 0 0
0 0 0 0 0 0 0 0 0 0 0 0 0 0 0 0 0 0 0 0 0 0 0 0 0 0 0 0 0 0 0 0 0 0 0 0 0 0 0 0 0 0 0
0 0 0 0 0 0 0 0 0 0 0 0 0 0 0 0 0 0 0 0 0 0 0 0 0 0 0 0 0 0 0 0 0 0 0 0 0 0 0 0 0 0 0
Wind_Speed
1 1 2 1 0 3 5 8 8 9 8 7 7 7 7 6 6 7 10 11 11 11 10 8 9 9 8 9 9 7 8 6 5 4 4 5 5 5 4 4 4 4 3
1 2 3 2 1 1 2 4 6 7 8 7 6 5 5 5 6 5 8 10 11 11 9 10 8 9 8 9 9 8 6 5 5 5 4 4 5 5 4 4 3 3 2
2 2 3 1 1 0 2 2 5 7 7 7 5 4 4 4 5 6 6 9 10 11 10 11 9 9 9 8 10 10 9 7 6 6 5 4 4 2 4 4 3 3 3
3 3 2 2 1 0 1 2 3 4 5 6 6 8 6 6 6 6 6 7 9 10 10 10 10 9 8 8 9 9 8 8 6 5 6 5 3 3 3 4 4 3 3
4 3 2 1 1 0 1 2 3 2 3 5 6 7 6 5 4 6 7 7 7 8 9 9 9 9 8 8 9 9 9 7 7 5 4 5 5 6 5 5 4 4 3
4 3 3 2 2 1 2 2 3 2 3 4 5 6 6 5 5 7 7 6 5 6 8 9 8 8 7 8 8 8 9 7 7 6 5 5 5 5 6 7 6 5 3
5 4 4 4 3 2 2 2 2 2 2 3 4 5 5 5 6 6 6 6 5 5 8 8 8 7 7 7 7 7 7 7 8 7 6 6 5 4 4 5 5 5 3
5 6 6 5 4 3 2 2 1 1 1 2 2 3 3 3 3 5 4 4 4 5 6 7 7 6 6 6 6 5 6 6 7 7 7 5 4 4 4 4 4 5 4
7 7 6 6 5 5 4 2 1 1 0 1 2 3 2 2 3 3 4 4 4 3 5 6 6 6 7 6 6 5 6 6 6 6 5 4 3 3 4 4 4 5 5
7 7 7 7 6 5 4 4 3 2 1 0 0 1 1 2 2 2 3 4 4 4 5 5 6 6 7 7 7 5 6 6 5 4 5 4 3 3 3 3 3 4 4
7 7 7 7 6 6 5 5 4 4 3 2 0 0 1 1 3 3 3 3 4 5 6 6 7 7 7 7 7 7 6 6 6 5 5 5 4 3 3 2 3 3 3
7 7 7 7 6 6 6 5 5 4 4 3 2 1 1 1 1 2 2 3 3 4 5 5 5 6 6 7 7 7 7 7 7 6 6 6 4 5 3 3 3 3 3
8 7 7 7 7 7 6 5 5 4 4 3 2 2 1 1 1 1 2 2 3 3 4 4 5 5 5 6 6 6 6 6 6 6 6 6 6 6 4 4 3 3 2
7 8 7 7 7 7 6 5 5 4 4 3 2 2 2 2 1 1 1 2 2 3 3 4 4 4 5 5 5 5 5 5 5 5 5 6 6 6 5 4 4 3 3
8 8 7 7 7 7 6 6 5 5 4 3 3 2 2 2 1 1 1 2 2 2 3 3 4 4 4 4 5 5 5 5 5 4 4 4 4 4 4 3 3 3 3
7 8 7 7 7 7 7 6 6 5 5 4 3 3 2 2 2 2 2 2 2 2 3 4 4 4 3 5 6 6 5 5 6 5 4 4 5 5 5 4 3 3 3
7 8 7 7 7 7 7 6 6 5 4 4 3 3 3 3 2 2 2 2 2 2 3 3 4 4 5 7 8 7 5 5 5 6 5 4 4 5 4 5 4 3 2
7 7 7 7 7 7 6 6 5 5 4 4 4 3 3 3 3 3 3 3 2 3 3 4 4 4 5 8 8 8 5 5 5 5 6 5 5 5 5 4 4 2 2
6 7 7 7 7 7 6 5 5 5 5 5 5 4 4 3 3 3 3 3 3 3 3 3 4 4 5 7 9 8 5 4 5 5 5 5 5 8 8 5 5 3 2
6 6 7 7 6 7 6 5 5 5 5 5 5 5 4 4 4 3 3 3 3 3 2 3 3 4 4 7 9 9 4 5 4 4 4 6 6 8 9 6 6 5 4
7 7 6 6 6 7 6 6 5 6 6 6 5 5 4 4 3 3 3 2 2 2 3 3 3 3 4 6 9 9 5 5 5 4 4 4 9 9 9 7 5 5 4
7 7 6 6 6 6 6 6 6 6 6 5 5 5 4 4 3 3 2 2 2 3 3 3 2 2 3 5 7 9 7 6 5 4 4 5 9 9 9 7 6 7 6
6 6 7 7 6 6 6 6 7 7 6 6 5 5 4 4 3 3 2 2 2 2 3 3 3 2 2 4 7 8 8 8 5 4 6 7 8 8 7 8 9 7 5
6 6 7 7 7 6 6 6 6 6 6 5 5 4 4 4 3 2 2 2 2 2 2 3 3 2 2 3 3 4 5 6 5 4 6 8 8 5 5 6 6 4 4
5 6 6 7 7 7 7 6 6 6 6 5 5 5 4 3 3 2 2 2 2 2 3 3 3 3 4 4 6 5 4 5 5 4 3 4 4 4 4 4 4 4 4
5 6 7 7 7 7 7 6 6 6 5 5 4 4 3 3 3 2 2 1 3 3 3 3 3 3 4 5 7 7 7 7 8 6 4 5 5 5 5 5 5 5 5
Wind_Direction
265 107 110 105 169 152 177 180 183 183 175 176 176 177 183 182 188 195 196 197 196 194 195 193 194 193 195 197 198 199 203 206 205 221 235 238 236 238 235 236 237 227 228
96 78 85 64 33 118 157 180 186 184 181 185 178 179 179 186 190 194 200 201 200 198 197 198 197 197 198 199 200 197 202 200 199 214 227 235 219 211 222 224 229 229 214
55 62 68 64 39 86 176 195 192 187 180 180 173 173 174 180 188 194 198 202 201 200 201 204 202 200 202 202 201 199 202 203 200 212 220 230 232 202 196 208 218 217 216
39 55 53 29 27 208 177 202 189 191 181 175 181 186 196 204 201 193 197 200 203 200 201 203 203 201 202 205 205 204 206 207 205 205 228 248 273 245 228 201 212 224 237
30 36 25 346 330 59 143 183 169 174 187 190 190 196 207 210 202 193 195 198 201 202 200 200 201 201 202 205 202 201 204 206 210 207 202 218 233 245 253 251 232 225 228
36 23 5 4 5 49 115 133 145 161 178 179 188 198 204 205 208 200 194 198 199 199 201 200 201 202 202 206 206 203 204 206 211 212 209 210 213 216 227 245 251 249 232
38 30 17 19 19 47 79 110 141 171 171 161 180 197 197 196 205 209 202 199 197 195 200 199 198 199 200 203 202 203 203 206 211 213 213 218 227 227 230 244 256 261 251
34 31 22 17 17 31 56 83 94 117 157 156 179 196 191 199 205 208 202 204 202 197 198 198 196 196 196 196 198 203 203 204 214 219 216 214 218 218 226 235 243 251 244
26 25 25 24 20 23 26 46 55 34 96 176 186 179 183 205 204 204 199 205 210 199 199 196 195 192 192 193 194 202 204 204 211 211 210 212 215 213 222 227 232 244 256
24 24 24 22 19 21 19 27 35 1 340 49 132 149 183 216 208 205 209 207 207 200 198 200 199 197 192 192 197 195 199 199 201 198 197 203 201 202 207 216 225 237 250
16 20 21 19 17 18 19 23 22 16 15 16 4 168 240 230 197 202 210 211 208 202 203 203 200 198 195 194 195 195 193 195 197 189 187 190 185 186 189 199 211 223 231
17 18 19 18 17 13 12 12 9 9 6 360 358 1 313 261 185 196 216 219 212 209 209 206 203 198 196 196 197 193 189 192 192 190 186 187 182 188 189 193 204 213 223
18 17 18 16 12 7 8 7 2 356 355 358 1 344 322 296 233 217 224 225 216 213 210 204 200 193 191 192 195 190 187 188 188 190 189 188 186 191 189 196 201 202 209
19 15 12 11 6 1 2 1 359 353 350 349 349 335 315 292 270 248 235 225 217 212 211 206 201 194 189 188 185 182 181 180 179 182 185 186 190 192 186 192 195 196 203
14 11 8 3 358 356 356 357 353 351 347 344 341 334 318 301 277 251 243 235 226 219 211 204 194 189 189 189 185 181 178 174 168 170 176 174 177 178 179 182 185 192 204
3 0 360 355 352 349 346 345 345 344 341 340 337 331 318 305 285 274 258 237 227 220 211 205 194 189 187 174 179 179 174 170 170 169 165 157 163 161 165 166 175 196 207
352 350 349 346 342 340 337 338 339 337 335 332 328 322 310 298 289 275 257 246 237 227 218 212 201 195 183 177 180 179 176 176 174 171 168 164 164 166 161 156 158 172 203
345 342 340 337 334 332 332 334 334 334 333 329 327 323 307 290 281 268 256 250 240 227 219 211 202 194 186 181 180 174 178 174 174 177 176 175 175 175 169 168 169 168 167
338 334 332 328 328 333 333 331 333 336 335 332 329 322 309 290 274 266 261 255 243 229 219 209 202 196 190 183 179 176 170 169 173 175 179 180 183 178 177 177 178 179 170
340 335 332 331 334 338 335 331 333 333 331 329 323 316 307 296 283 274 270 263 246 229 212 208 209 205 197 183 184 182 174 171 171 173 178 189 193 184 187 192 188 197 189
338 338 335 335 335 335 335 330 330 329 329 324 320 318 314 309 296 284 273 257 230 218 210 207 208 202 196 188 192 192 187 179 176 181 186 189 191 195 198 201 202 201 185
333 336 334 333 333 332 331 327 325 326 324 320 317 318 319 317 300 284 275 254 224 213 207 199 203 201 193 196 194 197 197 187 185 192 192 188 189 197 202 204 196 190 189
326 329 329 326 329 330 327 321 322 323 321 317 315 316 317 313 306 291 270 253 226 213 205 199 203 202 196 193 196 197 196 198 201 196 190 187 192 199 206 205 198 194 194
319 321 320 318 319 324 321 319 319 320 317 312 310 310 310 311 311 305 277 251 237 225 215 209 207 205 203 197 190 187 187 194 199 192 188 193 198 202 197 195 199 200 201
309 310 309 310 312 316 315 317 318 318 314 311 309 308 304 303 302 294 286 271 263 249 232 226 215 208 219 213 200 195 191 187 183 167 168 181 184 194 198 199 202 201 201
302 304 304 305 307 309 308 312 314 313 308 304 307 306 302 301 299 295 298 298 266 281 279 263 246 247 241 219 214 211 208 199 186 179 186 196 200 205 205 204 205 205 207